Probability
0 0 0 0 0 0 0 0 0 0 0 0 0 0 0 0 0 0 0 0 0 0 0 0 0 0 0 0 0 0 0 0 0 0 0 0 0 0 0 0 0 0 0
0 0 0 0 0 0 0 0 0 0 0 0 0 0 0 0 0 0 0 0 0 0 0 0 0 0 0 0 0 0 0 0 0 0 0 0 0 0 0 0 0 0 0
0 0 0 0 0 0 0 0 0 0 0 0 0 0 0 0 0 0 0 0 0 0 0 0 0 0 0 0 0 0 0 0 0 0 0 0 0 0 0 0 0 0 0
0 0 0 0 0 0 0 0 0 0 0 0 0 0 0 0 0 0 0 0 0 0 0 0 0 0 0 0 0 0 0 0 0 0 0 0 0 0 0 0 0 0 0
0 0 0 0 0 0 0 0 0 0 0 0 0 0 0 0 0 0 0 0 0 0 0 0 0 0 0 0 0 0 0 0 0 0 0 0 0 0 0 0 0 0 0
0 0 0 0 0 0 0 0 0 0 0 0 0 0 0 0 0 0 0 0 0 0 0 0 0 0 0 0 0 0 0 0 0 0 0 0 0 0 0 0 0 0 0
0 0 0 0 0 0 0 0 0 0 0 0 0 0 0 0 0 0 0 0 0 0 0 0 0 0 0 0 0 0 0 0 0 0 0 0 0 0 0 0 0 0 0
0 0 0 0 0 0 0 0 0 0 0 0 0 0 0 0 0 0 0 0 0 0 0 0 0 0 0 0 0 0 0 0 0 0 0 0 0 0 0 0 0 0 0
0 0 0 0 0 0 0 0 0 0 0 0 0 0 0 0 0 0 0 0 0 0 0 0 0 0 0 0 0 0 0 0 0 0 0 0 0 0 0 0 0 0 0
0 0 0 0 0 0 0 0 0 0 0 0 0 0 0 0 0 0 0 0 0 0 0 0 0 0 0 0 0 0 0 0 0 0 0 0 0 0 0 0 0 0 0
0 0 0 0 0 0 0 0 0 0 0 0 0 0 0 0 0 0 0 0 0 0 0 0 0 0 0 0 0 0 0 0 0 0 0 0 0 0 0 0 0 0 0
0 0 0 0 0 0 0 0 0 0 0 0 0 0 0 0 0 0 0 0 0 0 0 0 0 0 0 0 0 0 0 0 0 0 0 0 0 0 0 0 0 0 0
0 0 0 0 0 0 0 0 0 0 0 0 0 0 0 0 0 0 0 0 0 0 0 0 0 0 0 0 0 0 0 0 0 0 0 0 0 0 0 0 0 0 0
0 0 0 0 0 0 0 0 0 0 0 0 0 0 0 0 0 0 0 0 0 0 0 0 0 0 0 0 0 0 0 0 0 0 0 0 0 0 0 0 0 0 0
0 0 0 0 0 0 0 0 0 0 0 0 0 0 0 0 0 0 0 0 0 0 0 0 0 0 0 0 0 0 0 0 0 0 0 0 0 0 0 0 0 0 0
0 0 0 0 0 0 0 0 0 0 0 0 0 0 0 0 0 0 0 0 0 0 0 0 0 0 0 0 0 0 0 0 0 0 0 0 0 0 0 0 0 0 0
0 0 0 0 0 0 0 0 0 0 0 0 0 0 0 0 0 0 0 0 0 0 0 0 0 0 0 0 0 0 0 0 0 0 0 0 0 0 0 0 0 0 0
0 0 0 0 0 0 0 0 0 0 0 0 0 0 0 0 0 0 0 0 0 0 0 0 0 0 0 0 0 0 0 0 0 0 0 0 0 0 0 0 0 0 0
0 0 0 0 0 0 0 0 0 0 0 0 0 0 0 0 0 0 0 0 0 0 0 0 0 0 0 0 0 0 0 0 0 0 0 0 0 0 0 0 0 0 0
0 0 0 0 0 0 0 0 0 0 0 0 0 0 0 0 0 0 0 0 0 0 0 0 0 0 0 0 0 0 0 0 0 0 0 0 0 0 0 0 0 0 0
0 0 0 0 0 0 0 0 0 0 0 0 0 0 0 0 0 0 0 0 0 0 0 0 0 0 0 0 0 0 0 0 0 0 0 0 0 0 0 0 0 0 0
0 0 0 0 0 0 0 0 0 0 0 0 0 0 0 0 0 0 0 0 0 0 0 0 0 0 0 0 0 0 0 0 0 0 0 0 0 0 0 0 0 0 0
0 0 0 0 0 0 0 0 0 0 0 0 0 0 0 0 0 0 0 0 0 0 0 0 0 0 0 0 0 0 0 0 0 0 0 0 0 0 0 0 0 0 0
0 0 0 0 0 0 0 0 0 0 0 0 0 0 0 0 0 0 0 0 0 0 0 0 0 0 0 0 0 0 0 0 0 0 0 0 0 0 0 0 0 0 0
0 0 0 0 0 0 0 0 0 0 0 0 0 0 0 0 0 0 0 0 0 0 0 0 0 0 0 0 0 0 0 0 0 0 0 0 0 0 0 0 0 0 0
0 0 0 0 0 0 0 0 0 0 0 0 0 0 0 0 0 0 0 0 0 0 0 0 0 0 0 0 0 0 0 0 0 0 0 0 0 0 0 0 0 0 0
Wind_Speed
3 3 3 3 3 3 3 3 3 2 3 3 3 3 3 3 3 3 3 3 3 3 2 2 3 2 2 2 2 2 2 2 4 4 2 2 2 3 4 3 4 3 4
3 3 3 3 3 3 4 3 3 3 3 3 3 3 3 3 3 3 4 3 3 3 3 3 3 2 3 2 2 3 3 3 4 5 4 3 3 3 3 4 4 4 3
3 3 2 3 3 4 3 3 3 3 3 3 3 4 4 3 3 4 4 4 4 4 4 4 3 3 4 3 3 3 3 3 3 4 4 3 3 2 3 4 4 3 5
2 2 3 3 3 3 3 3 3 3 3 3 3 4 4 4 4 3 3 3 3 4 4 4 4 4 4 4 4 4 3 3 3 3 4 3 3 3 2 3 4 3 4
3 3 3 3 3 3 3 3 3 3 3 3 3 3 3 3 3 3 3 3 3 4 4 4 4 5 6 5 4 3 3 3 3 3 4 3 3 2 2 2 3 4 4
3 3 3 3 3 3 3 2 3 3 3 3 3 3 3 3 5 6 4 3 4 4 5 4 4 5 7 9 10 8 6 5 4 4 4 4 4 3 2 2 2 3 4
3 3 3 3 3 3 3 3 3 3 3 3 4 4 4 5 6 7 7 4 4 4 4 4 4 4 6 4 7 9 9 11 9 5 5 5 4 3 2 3 3 3 4
3 3 3 3 3 3 3 3 3 3 3 3 4 4 4 5 7 7 7 4 4 5 5 5 4 4 4 5 4 4 5 6 7 5 5 5 4 3 2 3 3 3 4
3 3 3 3 3 3 4 4 3 3 3 3 3 4 4 5 7 7 6 3 4 5 5 4 5 5 8 8 5 5 5 5 7 9 9 8 8 8 4 1 1 2 4
4 3 3 3 3 4 4 4 3 3 4 3 4 4 5 5 7 8 7 3 4 4 4 4 7 7 8 9 5 5 6 5 4 4 5 6 5 6 7 3 3 3 3
3 2 3 3 4 4 3 3 2 3 3 3 4 4 4 5 7 8 8 4 4 4 3 3 4 8 9 10 8 5 8 6 3 3 3 3 2 2 3 3 3 3 4
2 3 3 3 3 3 3 3 3 3 3 4 4 4 3 4 5 7 8 8 6 4 4 3 4 8 9 10 8 8 10 7 3 3 3 3 3 3 3 3 4 4 4
3 4 4 4 3 3 3 4 3 3 3 3 3 4 3 3 4 7 8 9 9 5 4 7 8 9 9 7 9 10 7 4 3 4 4 4 3 3 2 2 2 2 3
4 4 4 4 3 3 3 3 3 3 3 3 3 3 3 3 3 3 3 4 6 5 4 6 9 9 7 7 7 6 4 4 4 4 4 3 2 2 2 2 2 2 2
4 4 4 4 4 3 3 3 4 4 4 4 4 3 3 4 5 7 4 3 3 4 4 3 3 3 3 3 3 4 3 3 4 3 3 3 3 3 3 2 2 2 3
4 4 3 3 3 3 3 3 5 6 7 7 7 7 6 8 10 10 10 9 9 9 5 4 4 4 5 4 4 4 3 4 4 4 4 4 4 3 3 2 3 3 4
5 4 3 3 3 3 3 3 4 4 6 8 9 10 10 10 10 10 10 10 10 8 5 4 5 5 5 4 4 4 4 4 4 4 4 4 4 4 3 3 3 3 4
5 5 5 4 4 4 4 4 4 4 4 4 6 9 10 10 10 10 10 7 5 5 4 5 5 5 4 4 4 4 4 4 4 4 4 4 4 4 4 4 4 4 4
5 4 4 4 4 4 4 4 4 5 5 5 4 5 8 8 9 9 8 4 5 5 5 5 5 5 4 4 4 4 4 4 4 4 4 4 4 4 4 4 4 6 5
5 7 6 4 4 4 4 4 4 5 5 5 5 4 3 3 3 4 4 4 5 5 5 5 4 5 4 4 4 4 4 4 5 4 4 4 4 4 4 5 4 4 4
4 5 7 4 4 4 4 5 5 5 5 5 5 6 7 4 5 5 5 4 5 5 5 4 4 4 4 4 4 5 5 5 5 4 4 4 4 4 4 4 4 4 3
3 4 4 4 4 4 5 5 5 5 6 6 5 5 10 5 4 5 5 5 5 4 4 4 4 4 4 4 5 5 5 5 5 4 4 4 4 4 3 3 3 3 3
3 4 4 4 4 7 6 5 5 5 5 5 5 5 5 5 5 5 5 5 4 4 4 4 4 4 4 4 4 5 5 5 4 4 4 4 4 3 3 3 4 3 3
4 4 4 4 4 4 5 5 5 5 6 6 5 5 5 5 5 5 5 4 4 4 4 4 4 5 6 5 4 4 4 4 4 4 5 4 4 3 3 3 3 3 3
3 4 4 5 5 5 5 5 5 6 6 6 5 5 5 5 5 5 4 4 4 4 5 4 4 4 6 6 5 4 5 7 5 3 4 4 4 4 4 3 3 3 3
4 4 5 5 5 5 5 6 6 6 6 6 5 5 5 5 5 5 4 4 4 4 4 4 4 5 5 4 5 6 7 7 7 7 4 3 4 4 4 3 3 3 3
Wind_Direction
189 200 202 209 204 210 220 221 219 220 218 218 221 221 223 228 225 221 231 236 240 246 242 233 241 246 246 233 226 233 238 231 258 280 285 294 306 308 316 310 302 300 302
186 201 212 209 202 215 225 224 216 220 221 218 219 224 229 230 227 224 233 233 233 238 243 241 242 239 245 242 235 235 237 234 243 270 287 294 288 288 298 304 310 312 304
179 196 209 210 214 222 225 224 220 221 223 220 217 222 227 230 232 233 233 233 231 232 233 238 243 236 243 242 238 240 243 249 241 255 274 283 288 296 307 310 310 310 309
182 200 211 219 222 225 228 228 226 223 224 226 226 226 225 227 231 235 237 239 239 238 234 233 235 235 242 242 242 240 242 251 254 256 266 277 282 289 298 303 311 314 312
186 204 217 226 227 227 229 230 231 232 233 230 229 231 228 226 227 229 241 244 241 246 244 240 235 233 238 241 244 237 237 244 252 256 264 274 276 291 285 286 298 310 307
196 212 216 222 226 226 227 229 231 235 237 235 234 232 232 235 238 238 241 242 243 241 246 246 243 240 244 251 254 252 242 239 241 246 257 260 267 268 276 291 301 322 309
211 217 211 212 219 225 229 230 234 235 235 238 238 233 235 240 244 245 245 242 241 244 245 246 251 247 246 242 255 260 260 259 253 245 248 250 255 260 273 288 283 280 272
218 218 209 207 220 224 226 234 238 238 237 238 241 238 240 243 241 243 245 241 241 246 245 243 244 249 243 237 238 247 250 255 256 251 243 247 247 243 232 250 262 282 280
223 222 215 210 222 227 229 235 236 236 243 244 241 238 242 248 242 243 237 228 240 250 252 250 245 244 253 251 241 247 257 258 256 250 250 253 259 265 260 251 271 288 291
226 220 216 218 226 231 233 236 238 234 239 243 246 239 238 245 245 241 233 221 238 249 253 253 253 254 259 259 243 239 255 258 253 260 256 260 258 262 265 234 217 242 269
219 220 226 227 228 232 235 235 238 240 244 247 249 248 240 241 248 241 234 223 230 244 252 254 253 262 264 265 260 244 252 258 247 240 243 245 239 234 239 226 213 220 233
214 226 233 232 231 227 226 238 238 234 241 248 252 257 249 244 239 238 241 243 247 241 249 253 255 265 267 265 263 257 263 267 250 239 241 240 237 235 229 222 221 223 227
219 231 234 233 230 221 216 225 234 231 234 242 242 250 256 247 246 249 252 255 260 256 253 260 268 270 272 266 258 260 261 252 238 242 245 242 231 228 218 217 224 233 248
226 235 233 229 233 230 222 215 221 229 235 241 245 251 259 259 252 246 243 252 260 263 264 266 273 272 264 258 263 260 243 234 233 240 245 240 226 218 213 207 224 239 265
228 232 235 231 229 232 233 228 229 232 229 237 239 238 248 258 253 256 260 250 246 250 270 262 257 255 248 246 245 241 231 233 241 235 235 235 230 227 225 211 218 230 244
231 230 228 227 228 227 235 262 256 247 258 256 252 249 254 257 268 269 267 266 266 266 267 255 255 250 248 249 249 245 234 232 235 234 234 232 231 227 228 221 220 232 248
230 231 229 227 227 230 230 237 266 280 267 262 260 261 260 263 267 269 269 267 264 261 256 251 252 252 251 249 247 244 243 236 229 231 235 231 228 228 225 227 227 235 246
231 233 230 229 229 230 233 235 237 252 272 275 263 261 264 263 266 268 270 269 258 246 240 247 251 250 250 249 246 245 244 236 231 233 232 229 225 226 227 226 226 231 244
232 232 229 230 231 232 234 237 241 246 253 263 270 266 260 263 267 266 265 244 245 249 244 245 246 245 246 246 246 245 242 239 236 232 228 225 224 223 226 224 226 238 243
236 241 237 232 234 239 238 239 243 246 250 254 255 257 253 254 254 256 243 237 243 249 250 249 246 243 244 243 244 244 243 240 234 231 226 222 219 218 221 221 223 230 237
233 239 237 236 233 234 236 239 242 245 249 254 255 253 256 251 249 251 249 244 244 247 250 251 251 248 245 243 242 242 243 240 232 224 220 218 214 216 217 217 221 225 233
229 233 232 234 237 238 243 241 243 247 250 256 263 263 262 257 249 253 252 251 246 244 243 246 251 247 239 237 238 242 244 240 228 218 215 212 210 211 211 211 214 219 225
231 238 243 244 241 252 257 248 245 249 253 255 257 258 255 249 252 253 253 252 247 246 243 241 248 250 241 235 234 235 239 233 220 210 208 208 206 206 204 208 211 214 222
230 236 243 247 245 245 248 250 248 249 251 252 253 253 252 251 253 255 255 252 249 249 244 242 244 245 244 246 242 234 231 223 209 205 202 201 202 203 199 202 208 215 221
237 245 248 249 249 248 250 252 251 250 252 253 253 253 253 251 251 253 251 249 250 251 249 245 243 243 242 240 237 231 220 214 210 199 189 192 197 196 191 196 203 209 214
245 250 252 251 250 248 249 252 253 252 253 254 252 251 252 251 250 250 249 246 248 249 248 244 238 238 239 236 229 224 222 219 213 205 191 187 189 191 187 193 197 200 204